OCN2WK LDSP-EDDF

Flight info

Callsign OCN2WK
Flight time 1h 30m
Altitude 36000
Route ZDA DCT NIPEL DCT SIMBA DCT AKINI T161 DEBHI DEBHI1B
Aircraft A320/M-SDE3FGHIRWY/LB1

Departure

Time 2026-05-04 09:08
Airport Split Saint Jerome Airport (LDSP)

Arrival

Time 2026-05-04 10:39
Airport Frankfurt Main Airport (EDDF)
Time Latitude Longitude Altitude Speed Heading
2026-05-04 08:38 43.53695 16.29810 65 ft 0 kts 114°
2026-05-04 09:01 43.53696 16.29805 68 ft 3 kts 115°
2026-05-04 09:01 43.53709 16.29773 60 ft 4 kts 128°
2026-05-04 09:02 43.53727 16.29752 63 ft 4 kts 176°
2026-05-04 09:02 43.53737 16.29755 68 ft 0 kts 232°
2026-05-04 09:04 43.53732 16.29746 61 ft 5 kts 232°
2026-05-04 09:04 43.53695 16.29669 62 ft 14 kts 247°
2026-05-04 09:05 43.53693 16.29538 70 ft 10 kts 275°
2026-05-04 09:05 43.53681 16.29435 83 ft 19 kts 250°
2026-05-04 09:05 43.53608 16.29282 89 ft 19 kts 232°
2026-05-04 09:05 43.53529 16.29137 82 ft 18 kts 234°
2026-05-04 09:06 43.53458 16.29009 82 ft 16 kts 232°
2026-05-04 09:07 43.53370 16.28846 82 ft 57 kts 53°
2026-05-04 09:08 43.53750 16.29539 81 ft 121 kts 53°
2026-05-04 09:08 43.54356 16.30650 242 ft 156 kts 55°
2026-05-04 09:08 43.55026 16.31840 964 ft 157 kts 55°
2026-05-04 09:08 43.55599 16.33133 1583 ft 165 kts 76°
2026-05-04 09:09 43.55613 16.34777 1973 ft 183 kts 109°
2026-05-04 09:09 43.54894 16.36225 2628 ft 187 kts 144°
2026-05-04 09:09 43.53697 16.36872 3224 ft 189 kts 173°
2026-05-04 09:09 43.52398 16.37205 3768 ft 192 kts 159°
2026-05-04 09:10 43.51175 16.38019 4282 ft 198 kts 153°
2026-05-04 09:10 43.49932 16.38904 4813 ft 204 kts 152°
2026-05-04 09:10 43.48664 16.39819 5342 ft 208 kts 151°
2026-05-04 09:10 43.47362 16.40746 5547 ft 213 kts 156°
2026-05-04 09:11 43.45932 16.40932 5513 ft 209 kts 198°
2026-05-04 09:11 43.44738 16.39759 5644 ft 223 kts 236°
2026-05-04 09:11 43.43825 16.37909 5905 ft 245 kts 236°
2026-05-04 09:11 43.42750 16.35939 6271 ft 269 kts 234°
2026-05-04 09:12 43.41571 16.33867 6911 ft 279 kts 233°
2026-05-04 09:12 43.40359 16.31766 7715 ft 282 kts 233°
2026-05-04 09:14 43.39102 16.14674 12033 ft 346 kts 322°
2026-05-04 09:14 43.40971 16.12630 12778 ft 348 kts 322°
2026-05-04 09:14 43.42878 16.10549 13504 ft 352 kts 322°
2026-05-04 09:14 43.44805 16.08443 14170 ft 356 kts 322°
2026-05-04 09:15 43.46750 16.06313 14818 ft 359 kts 322°
2026-05-04 09:15 43.48709 16.04162 15462 ft 361 kts 322°
2026-05-04 09:15 43.50683 16.01998 16094 ft 365 kts 322°
2026-05-04 09:15 43.52674 15.99811 16709 ft 368 kts 322°
2026-05-04 09:17 43.68422 15.82422 21096 ft 386 kts 321°
2026-05-04 09:18 43.70520 15.80097 21622 ft 388 kts 321°
2026-05-04 09:18 43.72631 15.77756 22113 ft 390 kts 321°
2026-05-04 09:18 43.74752 15.75399 22653 ft 392 kts 321°
2026-05-04 09:18 43.76877 15.73036 23214 ft 392 kts 321°
2026-05-04 09:19 43.79009 15.70664 23701 ft 395 kts 321°
2026-05-04 09:19 43.81159 15.68267 24053 ft 399 kts 321°
2026-05-04 09:19 43.83326 15.65850 24430 ft 401 kts 321°
2026-05-04 09:19 43.85500 15.63425 24839 ft 402 kts 321°
2026-05-04 09:20 43.87685 15.60980 25197 ft 405 kts 320°
2026-05-04 09:20 43.89878 15.58520 25583 ft 406 kts 320°
2026-05-04 09:20 43.92078 15.56051 25974 ft 408 kts 320°
2026-05-04 09:20 43.94288 15.53576 26362 ft 409 kts 320°
2026-05-04 09:21 43.96507 15.51094 26746 ft 410 kts 320°
2026-05-04 09:21 43.98733 15.48605 27123 ft 412 kts 320°
2026-05-04 09:21 44.00966 15.46102 27500 ft 413 kts 320°
2026-05-04 09:21 44.03173 15.43622 27872 ft 415 kts 320°
2026-05-04 09:22 44.05417 15.41094 28257 ft 416 kts 320°
2026-05-04 09:22 44.07668 15.38559 28628 ft 417 kts 321°
2026-05-04 09:22 44.10098 15.36341 28979 ft 420 kts 330°
2026-05-04 09:22 44.12775 15.34682 29293 ft 423 kts 337°
2026-05-04 09:23 44.15533 15.33214 29608 ft 425 kts 337°
2026-05-04 09:23 44.18304 15.31738 29922 ft 427 kts 337°
2026-05-04 09:23 44.21085 15.30259 30237 ft 429 kts 337°
2026-05-04 09:23 44.23876 15.28775 30503 ft 430 kts 337°
2026-05-04 09:25 44.43523 15.18254 32697 ft 429 kts 336°
2026-05-04 09:25 44.46302 15.16757 33064 ft 427 kts 336°
2026-05-04 09:26 44.49074 15.15260 33394 ft 427 kts 336°
2026-05-04 09:26 44.51846 15.13760 33721 ft 428 kts 336°
2026-05-04 09:26 44.54616 15.12262 34068 ft 426 kts 336°
2026-05-04 09:26 44.57378 15.10769 34397 ft 425 kts 336°
2026-05-04 09:27 44.60135 15.09281 34715 ft 424 kts 336°
2026-05-04 09:27 44.62881 15.07796 35004 ft 422 kts 336°
2026-05-04 09:27 44.65617 15.06314 35289 ft 421 kts 336°
2026-05-04 09:27 44.68348 15.04831 35500 ft 421 kts 336°
2026-05-04 09:28 44.71086 15.03344 35712 ft 422 kts 336°
2026-05-04 09:28 44.73817 15.01858 35952 ft 422 kts 336°
2026-05-04 09:28 44.76555 15.00365 36119 ft 422 kts 336°
2026-05-04 09:28 44.79284 14.98876 36160 ft 419 kts 336°
2026-05-04 09:29 44.84705 14.95913 36156 ft 417 kts 336°
2026-05-04 09:29 44.90078 14.92964 36152 ft 417 kts 336°
2026-05-04 09:30 44.95492 14.90002 36153 ft 417 kts 336°
2026-05-04 09:30 45.00906 14.87035 36155 ft 417 kts 336°
2026-05-04 09:31 45.06317 14.84059 36152 ft 417 kts 336°
2026-05-04 09:31 45.11725 14.81075 36149 ft 417 kts 336°
2026-05-04 09:32 45.17128 14.78080 36145 ft 417 kts 336°
2026-05-04 09:34 45.38785 14.66044 36128 ft 419 kts 336°
2026-05-04 09:34 45.44224 14.63012 36135 ft 420 kts 336°
2026-05-04 09:35 45.49665 14.59973 36133 ft 420 kts 336°
2026-05-04 09:35 45.55106 14.56932 36131 ft 420 kts 336°
2026-05-04 09:37 45.76938 14.44615 36119 ft 423 kts 336°
2026-05-04 09:38 45.82414 14.41504 36118 ft 423 kts 336°
2026-05-04 09:38 45.87892 14.38400 36118 ft 423 kts 336°
2026-05-04 09:39 45.93365 14.35284 36115 ft 423 kts 336°
2026-05-04 09:39 45.98849 14.32144 36110 ft 425 kts 336°
2026-05-04 09:40 46.04341 14.29003 36107 ft 425 kts 336°
2026-05-04 09:40 46.09840 14.25859 36114 ft 426 kts 336°
2026-05-04 09:42 46.31818 14.13210 36118 ft 426 kts 335°
2026-05-04 09:43 46.37315 14.10007 36119 ft 426 kts 335°
2026-05-04 09:43 46.42825 14.06807 36118 ft 427 kts 335°
2026-05-04 09:44 46.48338 14.03606 36113 ft 427 kts 335°
2026-05-04 09:46 46.70508 13.91070 36085 ft 428 kts 336°
2026-05-04 09:46 46.76052 13.87900 36100 ft 428 kts 336°
2026-05-04 09:47 46.81607 13.84729 36083 ft 429 kts 336°
2026-05-04 09:49 47.03834 13.71984 36099 ft 430 kts 336°
2026-05-04 09:51 47.23335 13.60700 36081 ft 431 kts 336°
2026-05-04 09:51 47.28916 13.57453 36071 ft 431 kts 336°
2026-05-04 09:52 47.34497 13.54206 36057 ft 431 kts 336°
2026-05-04 09:52 47.40071 13.50951 36059 ft 431 kts 336°
2026-05-04 09:53 47.45636 13.47685 36053 ft 430 kts 335°
2026-05-04 09:53 47.51200 13.44420 36050 ft 430 kts 335°
2026-05-04 09:54 47.56764 13.41148 36034 ft 431 kts 335°
2026-05-04 09:54 47.62335 13.37874 36033 ft 431 kts 335°
2026-05-04 09:55 47.67900 13.34582 36039 ft 431 kts 335°
2026-05-04 09:55 47.73464 13.31284 36045 ft 430 kts 335°
2026-05-04 09:56 47.79025 13.27980 36041 ft 430 kts 335°
2026-05-04 09:56 47.84583 13.24675 36037 ft 430 kts 335°
2026-05-04 09:57 47.90140 13.21362 36044 ft 430 kts 335°
2026-05-04 09:57 47.95694 13.18035 36032 ft 430 kts 335°
2026-05-04 09:58 48.01251 13.14704 36027 ft 431 kts 335°
2026-05-04 09:58 48.06814 13.11371 36026 ft 431 kts 335°
2026-05-04 10:00 48.25401 12.97533 36023 ft 421 kts 310°
2026-05-04 10:00 48.27347 12.94267 36035 ft 420 kts 308°
2026-05-04 10:04 48.53787 12.49149 36012 ft 421 kts 308°
2026-05-04 10:04 48.57651 12.42515 36016 ft 421 kts 308°
2026-05-04 10:05 48.61506 12.35849 36020 ft 421 kts 307°
2026-05-04 10:05 48.65354 12.29147 36038 ft 423 kts 308°
2026-05-04 10:06 48.69208 12.22453 36029 ft 420 kts 307°
2026-05-04 10:06 48.72952 12.15672 36010 ft 418 kts 300°
2026-05-04 10:08 48.77304 11.90748 36019 ft 411 kts 277°
2026-05-04 10:08 48.77770 11.86474 36023 ft 411 kts 277°
2026-05-04 10:08 48.78674 11.78085 36043 ft 410 kts 277°
2026-05-04 10:09 48.79572 11.69547 36048 ft 410 kts 276°
2026-05-04 10:09 48.80463 11.61010 36049 ft 409 kts 276°
2026-05-04 10:10 48.81344 11.52480 36049 ft 410 kts 276°
2026-05-04 10:10 48.82227 11.44001 36046 ft 409 kts 276°
2026-05-04 10:11 48.83112 11.35468 36050 ft 409 kts 276°
2026-05-04 10:11 48.84139 11.26966 36040 ft 412 kts 284°
2026-05-04 10:12 48.86775 11.19193 35907 ft 422 kts 304°
2026-05-04 10:12 48.88782 11.15906 35655 ft 427 kts 314°
2026-05-04 10:12 48.90978 11.12873 35391 ft 427 kts 313°
2026-05-04 10:13 48.93181 11.09824 34621 ft 431 kts 313°
2026-05-04 10:13 48.95393 11.06753 34096 ft 428 kts 313°
2026-05-04 10:13 48.97582 11.03708 33537 ft 425 kts 313°
2026-05-04 10:13 48.99748 11.00679 32976 ft 421 kts 313°
2026-05-04 10:14 49.01889 10.97674 32447 ft 417 kts 313°
2026-05-04 10:14 49.04010 10.94688 31920 ft 414 kts 313°
2026-05-04 10:16 49.18352 10.74402 28362 ft 388 kts 313°
2026-05-04 10:16 49.20311 10.71602 27902 ft 384 kts 312°
2026-05-04 10:16 49.22198 10.68757 27463 ft 378 kts 310°
2026-05-04 10:16 49.24015 10.65918 27016 ft 370 kts 310°
2026-05-04 10:17 49.25789 10.63080 26606 ft 367 kts 309°
2026-05-04 10:17 49.27531 10.60262 26177 ft 362 kts 309°
2026-05-04 10:19 49.38869 10.40534 23298 ft 358 kts 301°
2026-05-04 10:19 49.40307 10.37385 22921 ft 361 kts 302°
2026-05-04 10:19 49.41740 10.34249 22548 ft 358 kts 302°
2026-05-04 10:19 49.43167 10.31124 22210 ft 357 kts 302°
2026-05-04 10:20 49.44721 10.28139 21769 ft 360 kts 306°
2026-05-04 10:20 49.46353 10.25215 21190 ft 361 kts 308°
2026-05-04 10:20 49.48014 10.22314 20649 ft 362 kts 308°
2026-05-04 10:20 49.49689 10.19410 20103 ft 363 kts 308°
2026-05-04 10:21 49.51366 10.16496 19569 ft 365 kts 308°
2026-05-04 10:21 49.53044 10.13557 19039 ft 366 kts 308°
2026-05-04 10:21 49.54718 10.10603 18531 ft 367 kts 308°
2026-05-04 10:21 49.56395 10.07636 17974 ft 368 kts 308°
2026-05-04 10:22 49.59754 10.01677 16804 ft 369 kts 308°
2026-05-04 10:22 49.61443 9.98679 16234 ft 370 kts 308°
2026-05-04 10:22 49.63127 9.95677 15680 ft 370 kts 308°
2026-05-04 10:23 49.64808 9.92675 15149 ft 369 kts 308°
2026-05-04 10:23 49.66484 9.89679 14616 ft 368 kts 308°
2026-05-04 10:25 49.78037 9.68985 10741 ft 356 kts 308°
2026-05-04 10:25 49.79641 9.66091 10215 ft 353 kts 308°
2026-05-04 10:25 49.81229 9.63222 9695 ft 349 kts 308°
2026-05-04 10:25 49.82780 9.60426 9113 ft 334 kts 308°
2026-05-04 10:26 49.84264 9.57754 8541 ft 320 kts 308°
2026-05-04 10:26 49.85686 9.55190 7994 ft 308 kts 308°
2026-05-04 10:26 49.87053 9.52711 7447 ft 298 kts 308°
2026-05-04 10:26 49.88377 9.50306 6905 ft 288 kts 308°
2026-05-04 10:27 49.89660 9.47977 6371 ft 280 kts 309°
2026-05-04 10:27 49.90909 9.45712 5810 ft 273 kts 309°
2026-05-04 10:27 49.92129 9.43493 5255 ft 268 kts 308°
2026-05-04 10:27 49.93348 9.41265 4703 ft 273 kts 308°
2026-05-04 10:28 49.94587 9.39005 4167 ft 276 kts 308°
2026-05-04 10:28 49.95794 9.36811 3993 ft 255 kts 309°
2026-05-04 10:28 49.96903 9.34791 3999 ft 238 kts 308°
2026-05-04 10:28 49.97961 9.32854 4010 ft 233 kts 308°
2026-05-04 10:29 49.99009 9.30931 3998 ft 233 kts 308°
2026-05-04 10:29 50.00057 9.29012 4007 ft 233 kts 308°
2026-05-04 10:29 50.01105 9.27097 4009 ft 233 kts 308°
2026-05-04 10:29 50.02154 9.25181 4005 ft 233 kts 308°
2026-05-04 10:30 50.03201 9.23266 4007 ft 233 kts 308°
2026-05-04 10:30 50.04249 9.21345 4009 ft 233 kts 308°
2026-05-04 10:30 50.05294 9.19423 4007 ft 232 kts 308°
2026-05-04 10:30 50.06319 9.17518 4007 ft 231 kts 304°
2026-05-04 10:31 50.07151 9.15355 4006 ft 230 kts 295°
2026-05-04 10:31 50.07859 9.13157 3996 ft 229 kts 294°
2026-05-04 10:32 50.10754 8.99271 4011 ft 211 kts 274°
2026-05-04 10:33 50.10899 8.97038 4024 ft 207 kts 274°
2026-05-04 10:33 50.11039 8.94853 4019 ft 206 kts 274°
2026-05-04 10:33 50.11182 8.92636 4035 ft 206 kts 274°
2026-05-04 10:33 50.11312 8.90414 4035 ft 206 kts 269°
2026-05-04 10:34 50.11018 8.88251 4001 ft 200 kts 249°
2026-05-04 10:34 50.10545 8.86270 3967 ft 197 kts 249°
2026-05-04 10:34 50.10071 8.84272 3780 ft 199 kts 249°
2026-05-04 10:34 50.09589 8.82236 3518 ft 200 kts 249°
2026-05-04 10:35 50.09113 8.80220 3266 ft 199 kts 249°
2026-05-04 10:35 50.08635 8.78196 2993 ft 197 kts 249°
2026-05-04 10:35 50.08168 8.76211 2750 ft 194 kts 249°
2026-05-04 10:35 50.07704 8.74250 2473 ft 192 kts 249°
2026-05-04 10:36 50.07243 8.72308 2214 ft 191 kts 249°
2026-05-04 10:36 50.06784 8.70367 1965 ft 191 kts 249°
2026-05-04 10:36 50.06324 8.68429 1715 ft 190 kts 248°
2026-05-04 10:36 50.05878 8.66546 1468 ft 179 kts 248°
2026-05-04 10:37 50.05465 8.64807 1258 ft 161 kts 248°
2026-05-04 10:37 50.05094 8.63240 1022 ft 148 kts 249°
2026-05-04 10:37 50.04750 8.61769 810 ft 142 kts 249°
2026-05-04 10:37 50.04406 8.60337 633 ft 141 kts 250°
2026-05-04 10:39 50.03469 8.55765 348 ft 4 kts 280°
2026-05-04 10:39 50.03478 8.55691 350 ft 11 kts 280°
2026-05-04 10:39 50.03490 8.55578 345 ft 13 kts 277°
2026-05-04 10:40 50.03478 8.55420 345 ft 16 kts 251°
2026-05-04 10:40 50.03435 8.55232 344 ft 20 kts 250°
2026-05-04 10:40 50.03392 8.55033 351 ft 18 kts 262°
2026-05-04 10:40 50.03423 8.54879 347 ft 10 kts 311°
2026-05-04 10:41 50.03470 8.54834 349 ft 7 kts 338°
2026-05-04 10:41 50.03481 8.54827 343 ft 0 kts 338°
2026-05-04 10:44 50.03810 8.54942 348 ft 0 kts 69°
2026-05-04 10:45 50.03826 8.55007 354 ft 13 kts 69°
2026-05-04 10:45 50.03860 8.55147 354 ft 14 kts 69°
2026-05-04 10:45 50.03908 8.55352 349 ft 24 kts 71°
2026-05-04 10:45 50.03966 8.55611 359 ft 26 kts 70°
2026-05-04 10:46 50.04007 8.55791 359 ft 27 kts 70°
2026-05-04 10:46 50.04077 8.56068 355 ft 28 kts 67°
2026-05-04 10:46 50.04148 8.56348 353 ft 25 kts 70°
2026-05-04 10:46 50.04201 8.56592 361 ft 22 kts 71°
2026-05-04 10:47 50.04233 8.56723 358 ft 0 kts 69°
2026-05-04 10:49 50.04429 8.56943 366 ft 5 kts 159°
2026-05-04 10:49 50.04394 8.56963 363 ft 5 kts 160°
2026-05-04 10:50 50.04380 8.56970 360 ft 0 kts 160°